Home   Weather   Barnstable   Past weeks

Flag for USA Past Weather in Barnstable, Massachusetts, USA — Yesterday and Last 2 Weeks

Now
51 °F

Light rain. Fog.


Feels Like: 46 °F
Forecast: 47 / 51 °F
Wind: 14 mph from East

Location: Barnstable Municipal-Boardman Airport

Current Time: Apr 25, 2017 at 1:06:06 pm

Latest Report: Apr 25, 2017 at 11:56 am


Visibility: 3 mi

Pressure: 30.18 "Hg

Humidity: 96%

Dew Point: 50 °F

Location of BarnstableLocation

Past Weather in Barnstable — Graph

°F

Barnstable Temperature Yesterday

Maximum temperature yesterday: 53 °F (at 11:56 am)
Minimum temperature yesterday: 44 °F (at 3:56 am)
Average temperature yesterday: 49 °F

High & Low Weather Summary for the Past Weeks

 TemperatureHumidityPressure
High77 °F (Apr 17, 11:56 am)100% (Apr 16, 5:04 am)30.57 "Hg (Apr 16, 5:04 am)
Low31 °F (Apr 14, 5:56 am)20% (Apr 17, 4:56 pm)29.73 "Hg (Apr 16, 7:56 pm)
Average50 °F78%30.14 "Hg
* Reported Apr 10 11:56 am — Apr 25 11:56 am, Barnstable, Weather by CustomWeather, © 2017

Note: Actual official high and low records may vary slightly from our data, if they occured in-between our weather recording intervals... More about our weather records

Advertising

Barnstable Weather History for the Previous 24 Hours

Scroll right to see more
 ConditionsComfort  
Time TempWeatherWind HumidityBarometerVisibility
11:56 am
Tue, Apr 25
51 °FLight rain. Fog.14 mph96%30.18 "Hg3 mi
11:28 am51 °FLight rain. Fog.12 mph96%30.19 "Hg3 mi
10:56 am51 °FLight rain. Fog.12 mph96%30.20 "Hg5 mi
9:56 am52 °FLight rain. Mostly cloudy.12 mph86%30.22 "Hg10 mi
9:43 am52 °FCloudy.12 mph86%30.21 "Hg10 mi
8:56 am51 °FOvercast.12 mph89%30.22 "Hg10 mi
7:56 am50 °FOvercast.7 mph93%30.22 "Hg10 mi
7:30 am50 °FMostly cloudy.8 mph93%30.20 "Hg10 mi
6:56 am50 °FLight rain. Overcast.6 mph93%30.21 "Hg10 mi
6:12 am50 °FLight rain. More clouds than sun.8 mph93%30.18 "Hg10 mi
5:56 am50 °FMostly cloudy.10 mph89%30.18 "Hg10 mi
5:35 am50 °FLight rain. Overcast.9 mph89%30.18 "Hg10 mi
5:14 am50 °FLight rain. Mostly cloudy.8 mph89%30.18 "Hg10 mi
4:56 am51 °FLight rain. Overcast.7 mph86%30.18 "Hg10 mi
3:56 am51 °FOvercast.6 mph86%30.18 "Hg10 mi
2:56 am50 °FOvercast.6 mph89%30.18 "Hg10 mi
1:56 am50 °FOvercast.7 mph86%30.19 "Hg10 mi
12:56 am50 °FOvercast.8 mph86%30.19 "Hg10 mi
11:56 pm
Mon, Apr 24
49 °FOvercast.5 mph90%30.19 "Hg10 mi
10:56 pm49 °FOvercast.6 mph86%30.20 "Hg10 mi
9:56 pm49 °FPassing clouds.3 mph86%30.20 "Hg10 mi
8:56 pm49 °FPassing clouds.7 mph86%30.20 "Hg10 mi
7:56 pm49 °FClear.No wind86%30.19 "Hg10 mi
6:56 pm49 °FSunny.6 mph90%30.18 "Hg10 mi
5:56 pm50 °FSunny.7 mph83%30.18 "Hg10 mi
4:56 pm51 °FSunny.7 mph66%30.17 "Hg10 mi
3:56 pm53 °FSunny.6 mph61%30.17 "Hg10 mi
2:56 pm52 °FSunny.7 mph69%30.18 "Hg10 mi
1:56 pm53 °FSunny.10 mph66%30.19 "Hg10 mi
Weather by CustomWeather, © 2017

See weather overviewHow to use our weather pages